Temperature
19 19 19 19 19 19 19 18 18 18 18 18 18 18 18 18 18 18 18 18 18 18 18 18 18 17 17 17 17 17 17 17 17 17 17 17 17 17 17 17 17 16 16
19 19 18 19 19 19 18 18 18 18 18 18 18 18 18 18 18 18 18 18 18 18 18 18 18 17 17 17 17 17 17 17 17 17 17 17 16 16 16 16 17 16 16
19 19 19 19 19 18 18 18 18 18 18 18 18 18 18 18 18 18 18 18 18 18 18 18 18 17 17 17 17 17 17 17 17 17 16 16 16 16 16 16 16 16 16
19 19 19 19 19 19 19 19 19 19 19 19 18 19 19 19 18 18 18 18 18 18 18 18 18 17 17 17 17 17 17 17 17 17 16 16 16 16 16 16 16 16 16
19 19 19 19 19 19 19 18 18 18 18 19 19 19 19 19 19 19 18 18 18 18 18 18 18 17 17 17 17 17 17 17 17 17 17 17 17 16 16 16 16 16 16
19 19 19 19 19 19 19 18 18 18 18 19 19 19 19 19 19 19 19 19 18 18 18 18 18 18 17 17 17 17 17 17 17 17 17 17 17 17 16 16 16 16 16
19 19 19 19 19 18 18 18 18 18 18 19 19 19 19 19 19 19 19 19 18 18 18 18 18 17 17 17 17 17 17 17 17 17 17 17 17 16 16 16 16 16 16
19 19 19 19 19 18 18 18 18 18 18 18 18 18 19 19 19 19 19 19 19 18 18 18 18 18 18 18 17 17 17 17 17 17 17 17 17 16 16 16 16 16 16
19 19 19 19 19 18 18 18 18 18 18 18 18 18 18 18 19 19 19 19 19 18 18 18 18 18 17 17 17 17 17 17 17 17 17 16 16 16 16 16 16 16 16
19 19 19 18 18 18 18 18 18 18 18 18 18 18 18 18 18 18 19 19 18 18 18 18 18 18 18 17 17 17 17 17 17 17 17 16 16 16 16 16 16 16 16
19 19 19 18 18 18 18 18 18 18 18 18 18 18 18 18 18 18 18 18 18 18 18 18 18 18 17 17 17 17 17 17 17 17 17 16 16 16 16 16 16 16 16
19 19 18 18 18 18 18 18 18 18 18 18 18 18 18 18 18 18 18 18 18 18 18 18 18 18 17 17 17 17 17 17 17 17 17 16 16 16 16 16 16 16 16
19 19 18 18 18 18 18 18 17 17 17 17 18 18 18 18 18 18 18 18 18 18 18 18 18 18 17 17 17 17 17 17 17 17 17 16 16 16 16 16 16 16 16
19 18 18 18 18 18 18 17 17 17 17 17 17 17 17 17 18 18 17 17 17 18 18 18 18 18 17 17 17 17 17 17 17 16 16 16 16 16 16 16 16 16 15
18 18 18 18 18 18 17 17 17 17 17 17 17 17 17 17 17 17 17 17 17 17 17 18 17 17 17 17 17 17 17 17 16 16 16 16 16 16 16 16 16 15 15
18 18 18 18 18 17 17 17 17 17 17 17 17 17 17 17 17 17 17 17 17 17 17 17 17 17 17 17 17 17 17 16 16 16 16 16 16 16 16 16 15 15 15
18 18 17 17 17 17 17 17 17 17 17 17 17 16 17 17 17 17 17 17 17 17 17 17 17 17 17 16 16 16 16 16 16 16 16 16 16 16 16 15 15 15 15
18 18 17 17 17 17 17 17 17 17 17 16 16 16 16 16 16 16 16 16 16 16 16 16 16 16 16 16 16 16 16 16 16 16 15 15 15 15 15 15 15 15 15
18 18 17 17 17 17 17 16 16 16 16 16 16 16 16 16 16 16 16 16 16 16 16 16 16 16 16 16 15 15 15 15 15 15 15 15 15 15 15 15 15 15 15
17 17 17 17 17 17 16 16 16 16 16 16 16 16 16 16 16 16 16 16 16 16 15 15 15 15 15 15 15 15 15 15 15 15 15 15 15 15 15 15 14 14 14
17 17 17 17 17 16 16 16 16 16 16 16 15 15 15 15 15 15 15 15 15 15 15 15 15 15 15 15 15 15 14 14 14 14 14 14 14 14 14 14 14 14 14
17 17 17 17 16 16 16 16 16 16 15 15 15 15 15 15 15 15 15 15 14 14 15 14 14 14 14 14 14 14 14 14 14 14 14 14 14 14 14 14 14 14 14
17 16 16 16 16 16 16 16 16 15 15 15 15 15 15 15 15 14 14 14 14 14 14 14 14 14 14 14 14 14 14 14 14 14 14 13 13 13 13 13 13 13 13
16 16 16 16 16 16 16 16 15 15 15 15 15 15 15 15 14 14 14 14 14 14 14 14 14 14 14 14 14 14 13 13 13 13 13 13 13 13 13 13 13 13 13
16 16 16 16 16 16 16 15 15 15 15 15 14 14 14 14 14 14 14 14 14 14 14 14 13 13 13 13 13 13 13 13 13 13 13 13 12 12 13 12 12 12 12
16 16 15 15 15 15 15 15 15 15 14 14 14 14 14 14 14 14 14 13 13 13 13 13 13 13 13 13 13 13 13 12 12 12 12 12 12 12 12 12 12 12 12
Wind_Speed
2 2 1 1 1 2 2 1 2 1 1 1 2 1 1 1 2 5 8 12 12 11 10 10 9 9 9 9 10 9 9 8 8 8 7 8 8 8 8 8 10 11 11
2 2 1 1 1 0 1 1 1 1 1 1 2 2 2 3 3 5 6 10 13 12 11 11 10 9 10 10 9 9 10 10 9 9 9 9 9 9 9 9 9 10 11
3 2 2 1 1 1 1 1 1 1 2 2 3 3 3 3 4 5 6 8 10 11 12 12 11 11 10 10 9 9 9 9 10 10 10 10 10 10 10 10 9 10 11
3 2 2 1 2 2 1 1 1 1 1 1 1 2 2 3 4 5 6 6 8 9 10 12 12 11 11 11 11 10 9 9 8 9 9 10 10 11 11 11 11 11 11
2 2 2 1 1 1 0 0 1 1 1 1 2 2 2 2 3 5 5 5 7 8 9 12 12 11 11 11 11 10 10 10 9 9 9 10 10 10 10 11 11 11 12
2 1 2 1 1 1 1 1 0 1 2 2 3 1 2 2 3 3 4 4 5 7 8 9 10 9 10 10 11 11 10 10 10 10 10 10 10 10 10 11 12 11 12
2 1 1 1 1 1 1 0 1 2 2 1 1 2 1 2 3 3 2 2 3 5 7 8 8 8 8 11 11 11 11 11 10 10 10 10 10 10 10 11 12 13 13
1 2 2 1 1 1 1 1 0 1 2 1 1 1 1 1 1 2 3 3 4 3 3 5 6 6 7 7 9 12 11 11 10 10 10 9 9 10 11 11 12 13 13
1 1 1 0 0 1 1 1 1 1 2 2 0 0 1 1 1 1 1 1 2 3 3 4 5 6 7 6 7 8 10 10 10 10 9 8 9 9 10 11 12 12 13
1 1 1 0 1 1 1 1 1 1 1 2 2 1 1 1 1 1 1 1 1 2 2 3 3 5 7 6 7 7 8 9 8 8 8 8 8 9 9 10 10 12 13
1 1 1 1 0 0 1 1 1 2 1 2 2 2 2 1 2 1 2 1 1 1 1 1 1 2 4 6 7 8 9 8 7 6 6 7 7 7 8 8 9 10 12
1 1 2 1 1 1 1 1 1 1 1 2 3 3 2 1 1 1 2 2 1 2 2 2 2 2 3 4 5 7 9 8 8 7 6 6 6 6 6 7 8 8 10
1 1 2 1 0 0 0 1 0 1 2 2 2 3 3 3 2 1 2 2 2 2 2 2 2 2 3 5 5 7 8 8 8 8 7 7 6 5 5 6 7 7 8
1 2 2 1 0 1 1 1 1 1 1 2 3 3 3 3 3 2 2 2 3 2 2 2 1 1 2 5 6 8 7 8 7 7 7 7 7 6 6 6 7 7 7
1 2 2 1 1 0 1 0 1 2 2 2 2 3 3 3 3 3 2 2 2 3 3 2 1 1 1 3 5 5 6 6 7 7 7 7 7 7 7 7 7 8 8
2 1 0 1 0 0 1 1 1 1 1 2 2 2 3 3 3 3 3 2 2 2 3 3 2 1 1 0 3 3 5 6 7 8 8 7 7 7 6 6 7 7 8
1 1 1 0 0 1 0 0 1 1 1 2 2 2 3 3 4 4 3 3 2 2 3 3 2 2 1 0 1 2 4 5 6 7 8 7 7 6 5 5 5 5 6
1 1 0 1 1 0 1 1 2 2 1 2 2 3 3 3 3 4 4 4 3 2 2 4 3 2 2 1 2 2 2 3 5 6 6 6 6 6 5 4 4 5 5
1 1 0 1 1 0 0 1 1 1 2 2 2 2 2 3 3 3 4 3 3 3 2 3 4 2 2 2 2 2 2 1 3 5 6 7 7 6 5 4 4 4 4
2 1 1 1 1 1 1 1 1 1 2 2 2 2 2 2 3 4 4 3 3 3 3 3 3 2 1 2 2 2 2 2 2 2 3 5 7 7 5 5 4 4 3
3 2 2 2 2 2 1 0 1 1 1 2 2 2 2 2 3 3 3 3 3 3 3 3 3 2 2 1 2 2 2 2 2 1 1 2 3 3 4 5 4 4 3
3 3 2 2 2 2 1 2 1 2 2 2 3 3 2 2 1 1 3 4 4 4 3 3 3 3 3 2 2 3 2 2 2 1 0 2 1 2 3 4 5 5 5
2 2 3 2 1 1 0 1 1 1 2 3 3 4 4 4 2 2 3 4 4 4 4 3 3 3 3 2 2 3 3 2 3 2 1 2 1 1 2 4 7 7 6
2 3 3 3 2 2 1 1 1 2 2 2 2 3 2 3 4 3 3 2 3 3 4 3 2 3 3 2 3 3 4 2 2 1 1 1 1 1 1 3 7 8 7
3 3 3 3 3 2 2 2 2 2 2 3 3 2 2 1 2 3 2 2 3 3 3 2 2 3 3 4 3 2 2 2 2 1 1 0 1 1 1 2 5 7 7
4 4 3 3 3 3 3 3 3 3 3 3 2 2 1 1 2 2 2 2 3 3 3 3 3 4 4 4 4 3 3 2 2 1 0 0 1 0 1 1 2 5 6
Wind_Direction
110 99 90 131 166 152 150 146 178 189 172 227 231 210 193 181 149 144 159 176 180 183 187 190 194 201 202 204 207 212 214 212 213 214 216 218 215 210 207 204 203 205 205
108 104 117 124 46 73 137 165 186 178 205 228 239 223 209 193 177 166 168 179 186 188 192 194 196 198 200 203 208 213 215 214 215 216 216 217 219 215 210 208 208 209 210
126 127 135 129 120 199 164 176 227 208 212 224 233 227 216 196 181 180 185 178 183 193 196 199 200 198 202 207 209 211 215 217 218 218 219 221 221 219 216 213 213 213 213
134 145 144 142 176 184 181 186 213 253 251 248 256 247 213 191 181 189 193 186 178 185 193 198 196 202 207 210 209 212 215 218 219 220 220 223 223 221 219 217 218 218 217
136 149 124 134 180 159 174 255 55 322 287 289 267 232 221 200 192 196 190 185 176 173 173 186 194 204 208 207 209 213 216 218 221 225 226 225 225 223 221 219 220 220 220
141 128 139 165 162 92 64 52 336 297 276 269 275 268 235 215 207 184 195 175 162 171 172 176 188 200 205 206 210 214 216 219 222 227 230 230 229 227 226 225 223 222 221
140 146 117 159 147 133 151 281 304 290 269 259 290 310 264 218 176 159 185 178 171 177 169 171 182 186 196 207 211 212 216 219 224 227 229 231 230 229 229 227 226 226 224
175 173 161 200 168 151 175 231 307 297 303 307 311 321 316 323 333 189 184 195 183 172 169 180 177 175 185 187 203 211 218 222 228 230 228 230 234 236 235 232 229 228 224
149 103 140 279 274 187 171 214 219 249 296 311 333 200 266 257 295 273 208 186 163 160 187 191 182 176 190 182 184 199 214 218 225 230 224 229 236 239 241 237 233 227 223
151 142 148 136 336 9 28 296 83 301 291 297 293 249 248 247 240 294 283 226 187 186 203 208 194 179 186 175 159 168 197 207 215 223 224 231 238 240 243 243 238 231 224
159 165 125 139 115 32 347 2 8 332 326 307 309 302 297 276 231 231 264 290 320 255 212 235 212 176 172 162 162 170 181 190 199 207 219 231 239 243 248 244 242 233 224
165 150 125 116 103 46 358 347 313 300 304 316 311 305 303 290 288 264 255 262 249 257 230 227 217 183 160 153 172 169 172 179 189 197 207 216 226 237 241 242 239 231 225
123 91 102 105 92 193 263 290 343 319 304 300 297 298 299 295 286 273 267 271 264 257 252 230 214 183 172 150 149 160 173 181 191 198 206 210 215 227 235 240 235 230 226
105 103 103 119 203 254 283 16 336 280 297 301 300 306 299 298 296 288 276 285 298 297 282 266 230 195 160 147 153 164 167 178 189 196 203 206 208 215 226 232 229 226 224
132 116 133 148 196 297 333 0 300 301 315 321 314 313 307 303 299 289 290 276 274 293 292 277 279 261 167 143 164 162 160 180 190 198 203 206 208 212 220 227 228 221 219
47 70 142 136 120 290 297 305 277 290 308 296 289 317 318 317 317 306 293 288 276 264 273 279 291 280 250 198 160 157 172 187 197 201 205 207 210 211 218 224 229 222 218
114 96 44 41 240 261 267 321 293 305 308 312 312 322 320 317 315 313 316 307 293 291 282 286 280 285 279 295 210 202 185 185 189 194 199 204 204 203 206 212 217 217 216
159 137 165 275 269 351 353 316 314 338 339 327 325 326 318 317 323 318 318 311 306 301 284 283 281 288 265 232 230 231 202 202 185 195 192 191 191 192 193 201 208 213 214
173 131 123 301 319 358 351 320 331 328 317 314 320 316 316 326 317 316 306 303 299 298 291 281 284 285 293 275 263 260 233 220 214 186 191 193 194 196 200 203 210 214 211
197 198 225 245 257 277 290 289 308 309 309 327 332 324 320 314 315 313 308 313 311 309 293 287 281 277 282 273 266 274 269 250 255 211 201 190 194 199 202 200 208 214 210
214 206 224 236 244 252 271 347 289 284 312 313 316 314 311 323 332 319 323 322 318 315 311 303 294 297 306 297 289 286 287 279 266 235 196 205 182 194 196 199 197 193 188
226 218 225 241 250 266 31 38 6 336 332 314 308 303 284 291 310 324 324 319 310 296 301 300 299 306 316 315 301 291 285 279 279 297 279 259 195 190 171 172 184 179 180
230 223 230 230 204 264 32 74 0 307 304 302 299 303 303 306 350 342 314 296 304 299 271 268 291 299 296 299 294 286 284 264 264 256 254 260 209 196 183 181 179 178 181
228 229 232 231 206 238 224 195 266 259 272 279 290 294 299 333 336 339 318 314 306 304 278 261 263 278 293 294 281 270 269 272 263 254 193 244 273 279 235 168 182 182 189
229 232 228 230 215 231 223 214 227 257 261 263 264 277 292 343 349 0 336 315 308 305 323 324 290 281 282 279 283 289 287 264 266 270 7 277 262 293 239 190 186 190 197
233 237 234 234 225 224 213 211 222 250 263 264 260 264 281 22 23 360 319 303 304 311 318 310 298 275 257 256 251 238 249 260 263 263 311 330 262 272 275 234 185 197 209
Height
1523 1523 1523 1524 1525 1525 1526 1526 1526 1527 1527 1528 1529 1530 1531 1531 1532 1532 1532 1533 1533 1533 1534 1534 1535 1535 1536 1537 1538 1539 1540 1541 1542 1544 1545 1546 1546 1547 1549 1550 1551 1552 1554
1524 1524 1525 1525 1526 1526 1527 1527 1527 1527 1528 1528 1529 1530 1530 1531 1531 1532 1532 1532 1532 1532 1533 1533 1533 1534 1534 1535 1536 1537 1538 1539 1541 1541 1542 1543 1544 1545 1546 1548 1549 1550 1552
1524 1525 1525 1526 1526 1527 1527 1527 1527 1528 1528 1529 1529 1529 1530 1530 1530 1531 1531 1531 1531 1531 1532 1532 1532 1532 1533 1533 1534 1535 1536 1538 1539 1539 1540 1541 1542 1543 1544 1545 1546 1548 1549
1524 1525 1525 1526 1526 1527 1527 1528 1527 1528 1528 1528 1528 1529 1529 1530 1530 1530 1530 1531 1530 1530 1530 1530 1531 1531 1531 1532 1533 1533 1534 1535 1536 1537 1538 1539 1539 1540 1541 1542 1544 1545 1546
1524 1525 1525 1526 1526 1527 1527 1528 1528 1528 1528 1528 1528 1528 1528 1529 1529 1529 1530 1530 1530 1529 1529 1529 1529 1530 1530 1530 1531 1532 1533 1533 1534 1535 1536 1536 1537 1538 1539 1539 1541 1542 1543
1524 1525 1525 1526 1526 1526 1527 1527 1527 1527 1527 1527 1527 1528 1528 1528 1528 1528 1528 1529 1529 1529 1528 1528 1528 1528 1528 1529 1529 1530 1531 1531 1532 1532 1533 1534 1534 1535 1535 1536 1537 1539 1540
1524 1525 1525 1525 1525 1526 1526 1526 1526 1526 1527 1527 1527 1527 1527 1527 1527 1527 1527 1527 1527 1527 1528 1528 1527 1527 1527 1528 1528 1528 1529 1529 1529 1530 1530 1531 1532 1532 1532 1533 1534 1535 1536
1524 1525 1525 1525 1525 1525 1525 1526 1525 1525 1526 1526 1527 1526 1526 1527 1526 1526 1526 1526 1526 1526 1526 1526 1526 1526 1527 1526 1526 1526 1527 1527 1527 1527 1528 1528 1528 1529 1530 1530 1531 1531 1533
1524 1524 1524 1524 1525 1525 1525 1525 1525 1525 1525 1526 1526 1527 1526 1526 1525 1526 1526 1526 1526 1525 1525 1526 1525 1525 1525 1525 1525 1525 1525 1525 1525 1525 1525 1525 1525 1526 1526 1527 1527 1528 1529
1523 1523 1523 1523 1524 1524 1524 1524 1524 1524 1524 1525 1525 1525 1526 1525 1525 1525 1525 1525 1525 1525 1525 1524 1524 1524 1524 1523 1523 1523 1522 1523 1523 1522 1523 1523 1523 1523 1523 1524 1524 1525 1526
1522 1522 1522 1523 1523 1523 1523 1523 1523 1523 1523 1524 1524 1524 1524 1524 1524 1524 1524 1524 1524 1524 1524 1523 1523 1522 1522 1522 1521 1521 1521 1521 1521 1520 1520 1520 1520 1520 1520 1520 1521 1521 1522
1522 1522 1522 1522 1522 1522 1522 1522 1522 1522 1522 1523 1523 1523 1523 1523 1522 1522 1522 1522 1522 1522 1522 1521 1521 1521 1520 1520 1520 1520 1519 1519 1519 1518 1518 1518 1518 1517 1517 1517 1518 1518 1519
1521 1521 1521 1521 1521 1521 1521 1521 1521 1521 1521 1521 1521 1521 1521 1521 1521 1521 1521 1520 1520 1520 1520 1520 1519 1519 1519 1518 1518 1518 1518 1517 1517 1516 1516 1516 1515 1515 1515 1515 1515 1516 1516
1520 1520 1520 1520 1520 1520 1520 1520 1520 1520 1520 1520 1520 1520 1519 1520 1519 1519 1519 1519 1518 1518 1518 1518 1518 1517 1517 1516 1516 1515 1515 1515 1514 1514 1513 1513 1513 1512 1512 1512 1512 1513 1514
1520 1519 1519 1519 1519 1519 1519 1519 1518 1519 1519 1518 1518 1518 1518 1517 1517 1517 1517 1517 1517 1515 1515 1515 1516 1515 1515 1514 1514 1513 1512 1512 1512 1511 1511 1510 1510 1509 1509 1509 1509 1510 1510
1518 1518 1518 1518 1518 1518 1518 1517 1517 1517 1517 1517 1517 1516 1516 1516 1515 1515 1515 1515 1515 1514 1513 1513 1513 1513 1513 1512 1511 1511 1510 1509 1509 1508 1508 1508 1507 1507 1506 1506 1506 1506 1507
1517 1517 1517 1517 1517 1517 1516 1516 1516 1516 1515 1515 1515 1514 1514 1514 1513 1513 1513 1512 1512 1512 1511 1511 1511 1511 1510 1509 1508 1508 1507 1506 1506 1506 1505 1505 1504 1504 1503 1503 1503 1503 1504
1515 1515 1515 1515 1516 1515 1515 1515 1514 1514 1514 1513 1513 1512 1512 1512 1511 1510 1510 1510 1509 1509 1509 1508 1507 1507 1507 1506 1506 1505 1504 1504 1503 1503 1503 1502 1502 1501 1501 1500 1500 1500 1501
1514 1514 1514 1514 1514 1514 1514 1513 1513 1512 1512 1511 1511 1510 1510 1509 1509 1508 1508 1507 1507 1506 1506 1505 1504 1504 1503 1503 1503 1502 1502 1502 1501 1501 1500 1500 1499 1499 1498 1498 1498 1498 1498
1511 1512 1512 1512 1512 1512 1511 1511 1511 1510 1510 1509 1508 1508 1507 1507 1506 1506 1505 1505 1504 1503 1503 1503 1502 1501 1500 1500 1500 1499 1499 1499 1499 1498 1497 1497 1497 1496 1496 1495 1495 1495 1495
1510 1509 1510 1510 1510 1510 1509 1509 1509 1508 1508 1507 1506 1506 1505 1505 1504 1503 1503 1502 1501 1500 1500 1499 1499 1498 1497 1497 1497 1496 1496 1495 1495 1495 1494 1494 1494 1493 1493 1493 1493 1492 1492
1507 1507 1507 1507 1507 1508 1507 1507 1506 1506 1505 1504 1504 1503 1503 1502 1501 1500 1500 1499 1499 1498 1497 1497 1496 1495 1495 1494 1494 1493 1493 1492 1491 1492 1491 1491 1491 1491 1490 1490 1490 1490 1490
1504 1504 1504 1505 1504 1504 1504 1504 1504 1503 1503 1502 1501 1500 1500 1500 1498 1497 1497 1496 1496 1495 1495 1494 1493 1493 1492 1491 1491 1490 1490 1489 1489 1489 1489 1488 1489 1488 1488 1488 1488 1488 1488
1502 1502 1502 1502 1501 1501 1502 1501 1501 1500 1500 1499 1498 1498 1497 1496 1496 1495 1494 1493 1492 1492 1491 1491 1490 1490 1489 1489 1488 1487 1487 1487 1487 1487 1487 1486 1486 1486 1486 1486 1486 1485 1485
1499 1499 1499 1499 1498 1498 1498 1498 1498 1498 1497 1497 1496 1496 1495 1494 1493 1492 1491 1490 1489 1489 1488 1488 1487 1487 1486 1486 1485 1484 1484 1484 1483 1483 1484 1484 1483 1484 1484 1483 1483 1483 1483
1496 1496 1496 1496 1496 1496 1496 1496 1495 1495 1494 1494 1494 1493 1492 1491 1491 1490 1489 1488 1487 1486 1485 1484 1484 1483 1482 1482 1482 1482 1481 1481 1481 1481 1481 1481 1481 1481 1481 1481 1481 1481 1481